Regional Weather Roundup
Issued by NWS

Home | Current Version | Previous Version | Text Only | Print | Product List | Glossary Off
Versions: 1 2 3 4 5 6 7 8 9 10 11 12 13 14 15 16 17 18 19 20 21 22 23 24 25 26 27 28 29 30 31 32 33 34 35 36 37 38 39 40 41 42 43 44 45 46 47 48 49 50

000
ASUS43 KDTX 271001
RWRMI
MICHIGAN HOURLY REGIONAL WEATHER ROUNDUP
NATIONAL WEATHER SERVICE DETROIT/PONTIAC MI
600 AM EDT FRI MAR 27 2015

NOTE: "FAIR" INDICATES FEW OR NO CLOUDS BELOW 12,000 FEET WITH NO
SIGNIFICANT WEATHER AND/OR OBSTRUCTION TO VISIBILITY.

MIZ047>049-052>055-059>063-066>070-074>076-081>083-271100-
SOUTHEAST LOWER MICHIGAN

CITY           SKY/WX    TMP DP  RH WIND       PRES   REMARKS
ADRIAN         CLOUDY    26  18  71 N12       29.98S WCI  16
ALMA           CLOUDY    21  12  67 NW9       30.03S WCI  11
ANN ARBOR      CLOUDY    22  12  65 NW10G22   29.98S WCI  11
BAD AXE        LGT SNOW  22  19  87 NW12      29.96S VSB 3/4 WCI  10
CARO           LGT SNOW  21  17  83 NW8       29.99S WCI  12
DETROIT CITY   CLOUDY    27  13  55 NW13      29.97R WCI  16
DETROIT        CLOUDY    25  13  60 NW14      29.98R WCI  13
FLINT          CLOUDY    22  12  65 NW12      30.00S WCI  10
GROSSE ILE     PTCLDY    27  16  63 NW14G22   29.96R WCI  15
HILLSDALE      CLEAR     22  14  71 NW13      29.97R WCI  10
HOWELL         FLURRIES  21  12  68 NW13G21   29.99R WCI   9

CITY           SKY/WX    TMP DP  RH WIND       PRES   REMARKS
JACKSON        CLOUDY    22  13  68 N9G20     29.99R WCI  12
LAMBERTVILLE   CLOUDY    30  21  69 NW8       29.98R WCI  23
LANSING        FLURRIES  21  12  68 N12G20    30.03R WCI   9
LAPEER         FLURRIES  21  16  79 NW8       29.98S WCI  12
MASON          FLURRIES  20  11  66 NW10G20   30.01R WCI   9
MONROE         PTCLDY    27  18  69 NW15      29.96R WCI  15
MT. CLEMENS    CLOUDY    24  13  65 NW14G22   29.94S WCI  11
PONTIAC        FLURRIES  21  12  68 NW15G21   29.96R WCI   8
PORT HOPE        N/A     24  19  81 N14G22    29.95R WCI  12
PORT HURON     CLOUDY    23  16  74 NW13      29.96S WCI  11
TRI CITIES     CLOUDY    22  12  65 NW12      30.02R WCI  10
TROY           CLOUDY    25  13  62 NW7G17    29.99R WCI  17
SAGINAW HB     LGT SNOW  21  18  86 NW10      30.01S WCI  10
$$
MIZ043>046-050>051-056>058-064>065-071>073-077>080-271100-
SOUTHWEST LOWER MICHIGAN

CITY           SKY/WX    TMP DP  RH WIND       PRES   REMARKS
BATTLE CREEK   CLEAR     21  11  65 N9        30.02R WCI  11
BENTON HARBOR  CLOUDY    23  15  71 VRB6      30.08R WCI  16
BIG RAPIDS     CLOUDY    20   8  60 N14       30.02S WCI   7
COLDWATER      CLEAR     22  15  73 N6        30.01R WCI  15
FREMONT        FLURRIES  21  12  67 N10       30.05S WCI  10
HOLLAND        PTCLDY    22  11  62 N8        30.08R WCI  12
GRAND RAPIDS   PTCLDY    20   9  62 N9        30.05R WCI   9
IONIA          CLOUDY    22  11  62 N15       30.03R WCI   8
KALAMAZOO      CLEAR     19  12  74 N12       30.04R WCI   7
LUDINGTON      CLOUDY    22   9  58 N14       30.09R WCI   9
MARSHALL       CLEAR     20  12  71 N5        30.00R WCI  14
MOUNT PLEASANT FLURRIES  20  10  63 NW10G18   30.02S WCI   9
MUSKEGON       CLEAR     21  11  65 N8        30.08R WCI  11
SOUTH HAVEN    CLOUDY    25  14  64 NE8       30.07R WCI  16
$$
MIZ016>042-271100-
NORTHERN LOWER MICHIGAN

CITY           SKY/WX    TMP DP  RH WIND       PRES   REMARKS
ALPENA         MIX PCPN  16   8  71 N17       30.04R WCI   0
BEAVER ISLAND  CLEAR     11   4  74 N5        30.12R WCI   3
BELLAIRE       CLEAR     14   5  68 N6        30.11R WCI   5
CADILLAC       FLURRIES  15   6  68 N9G21     30.01R WCI   3
CHARLEVOIX     CLEAR     13   7  76 N12       30.13S WCI  -1
FRANKFORT      CLEAR     20   1  43 NE7       30.11R WCI  11
GAYLORD        CLOUDY    11   5  77 VRB6      30.01R WCI   1
GRAYLING       FLURRIES  15   9  76 NW10      30.02R WCI   2
HARBOR SPRINGS FAIR      10   2  68 N3        30.09R
HOUGHTON LAKE  CLOUDY    15   6  67 NW10      30.01R WCI   2
MANISTEE       PTCLDY    19   1  45 NE9G17    30.10R WCI   9
OSCODA         FLURRIES  20  15  80 N13G21    29.99R WCI   8
PELLSTON       CLEAR     10   1  67 NW10      30.10R WCI  -4
ROGERS CITY    CLOUDY    15   7  69 N13G20    30.07R WCI   1
TRAVERSE CITY  CLEAR     15   6  67 N12       30.10R WCI   2
$$
MIZ007>008-015-271100-
EASTERN UPPER MICHIGAN

CITY           SKY/WX    TMP DP  RH WIND       PRES   REMARKS
KINROSS        CLEAR      3   0  85 N8        30.08R WCI -10
MACKINAC ISLAN CLEAR     11   2  68 N10G20    30.08R WCI  -2
NEWBERRY       CLEAR      4   1  86 N7        30.11R WCI  -8
S. S. MARIE    CLEAR      6  -3  66 N9        30.10R WCI  -8
$$
MIZ004>006-011>014-085-271100-
CENTRAL UPPER MICHIGAN

CITY           SKY/WX    TMP DP  RH WIND       PRES   REMARKS
MANISTIQUE     PTCLDY     7   3  83 N7        30.14R WCI  -4
ESCANABA       CLOUDY    16  10  79 N5        30.15R WCI   9
MENOMINEE      MOCLDY    12   5  73 N8        30.15S WCI   1
SAWYER-GWINN   CLOUDY    14   6  70 NE14      30.11R WCI  -1
$$
MIZ001>003-009>011-084-271100-
WESTERN UPPER MICHIGAN

CITY           SKY/WX    TMP DP  RH WIND       PRES   REMARKS
IRON MOUNTAIN  CLEAR      6   0  76 N5        30.13R WCI  -3
HOUGHTON       MOCLDY     9   2  73 NE9       30.19R WCI  -4
COPPER HARBOR    N/A      4  -2  76 E7        30.24R WCI  -8
IRONWOOD       CLOUDY    18   5  57 N7        30.17R WCI   8
$$

ABBREVIATIONS USED IN REMARKS
   TC - TEMPERATURE IN CELSIUS
  WCI - WIND CHILL INDEX
   HX - HEAT INDEX
  VSB - VISIBILITY



USA.gov is the U.S. government's official web portal to all federal, state and local government web resources and services.